NOAA 21 (JPSS-2) (54234 NORAD) Tracking and Keplerian Element Data

This shows tracking and keplerian element data for the satellite.

Feedback or suggestion? Click here.




ElementValue
Catalog54234
NameNOAA 21 (JPSS-2)
Epoch Orbit921
Epoch Day14.27173124
Epoch Year2023
RAAN314.753
Inclination98.703
Eccentricity0.0001113
Argument of Perigee85.1362
Mean Anonmoly274.9941
Mean Motion14.19555615
Decay Rate2.1E-06
L11 54234U 22150A 23014.27173124 .00000210 00000+0 12013-3 0 9997
L22 54234 98.7030 314.7530 0001113 85.1362 274.9941 14.19555615 9211



Live tracking and technical data element details for NOAA 21 (JPSS-2) (NORAD 54234). NOAA 21 (JPSS-2) can be tracked NOW for your location showing map with azimuth and elevation plus other details from your city location.







IsCatalogInMostPopularTable: catalog: 54234, numindb: 13
Update: records affected: 1



GetName: 54234 NOAA 21 (JPSS-2)

Hit Count: updated at: Fri, 27 Jan 2023 21:52:47 GMT